FREGAT DEB, 45822

Orbit data source: Space-Track

FREGAT DEB, 45822 is space debris in LEO originally from a launch on Mon, 18 Jul 2011 UTC launched from the Tyuratam Missile And Space Complex (TTMTR). Debris objects in space refer to the collection of defunct objects orbiting the Earth. Examples of debris include non-operational satellites, rocket bodies, and fragments generated from explosions, collisions, or faulty payload assembly.

Loading next visibility...
Identifier
45822, 2011-037BG
Orbit
LEO
Country
Flag of CISCIS
Related business
Manufacturer
Lavochkin
Mission
Spacecraft
Bus & Motor
Unknown
Mass
Unknown
Launch date (UTC)
2011-07-18 (15 years ago)
Launch vehicle
Unknown
Launch site
Tyuratam Missile And Space Complex (TTMTR)
Object type
Payload
Rocket body
Debris
Shape & HBR
Unknown shape, 0.1 m
Radar Cross Section
Medium (>0.1 m² and <1 m²)

Expand to show TLE details & history
Last TLE update: 5 hours ago

TLE from 5 hours ago
0 FREGAT DEB
1 45822U 11037BG  26127.18572549  .00016142  00000-0  46851-2 0  9992
2 45822  51.3408  68.4190 1030301 307.4321  43.7042 12.91183406257447
Epoch: 2026-05-07T04:27Z
TLE epoch observation values (Epoch: 2026-05-07T04:27:26.682Z)
Latitude
0.00005°
Longitude
136.52238°
Altitude
769.41 km
Speed
7.723 km/s
True Right ascension
04h 33m 40s
True Declination
0° 00' 00"
Sunlit
Object was in daylight at epoch
Visualization orbit readout
Latitude
Unknown
Longitude
Unknown
Altitude
Unknown
Speed
Unknown
Apparent Right ascension
Unknown
Apparent Declination
Unknown
Sunlit
N/A
Visualization observer readout
Local Sidereal Time
17:11:17
Azimuth
Unknown
Elevation
Unknown
Doppler factor
Unknown
Orbital elements
Apogee altitude
2,088.137 km
Perigee altitude
506.529 km
Semi-major axis
7,675.47 km
Eccentricity
0.10303
Inclination
51.3408°
RAAN
68.419°
Arg. of periapsis
307.4321°
True anomaly
52.65825°
Mean anomaly
43.7042°
Eccentric anomaly
48.09787°
Mean motion
3.22764 °/min
Orbital period
111.54 mins
BSTAR
0.0046851
Loading maneuver chart data...
Computing Atmospheric mass density...
Loading historical data...
Loading historical data...
Loading historical data...
Loading historical data...
Loading historical data...
Loading historical data...
Loading historical data...

Documentation

Showing up to 5 results
|